GAOFEN-13 02

Last updated on Sun Apr 12 2026 00:02:56 GMT+0000 (Coordinated Universal Time)

1 55912U 23036A 26101.43933676 -.00000217 00000+0 00000+0 0 9996 2 55912 1.0223 352.5230 0004848 339.8007 173.7446 1.00273261 11428
UTC large
Height (km)
Speed (km/s)
/
Latitude / Longitude
Inclination (degrees)
Orbital Period (minutes)
Azimuth
Elevation
Range (km)
Doppler Factor

Next 0 passes for location: London (51.5072 / 0.1276)

Sorry there are no passes over London.
GAOFEN-13 02